Time,TemperatureF,DewpointF,PressureIn,WindDirection,WindDirectionDegrees,WindSpeedMPH,WindSpeedGustMPH,Humidity,HourlyPrecipIn,Conditions,Clouds,dailyrainin,SoftwareType,DateUTC
2013-09-17 00:01:00,69.7,66.6,30.13,North,5,4.0,8.0,90,0.00,,---,0.00,VWS V14.00,2013-09-17 04:01:00,
2013-09-17 00:02:00,69.6,66.5,30.13,NE,54,7.0,10.0,90,0.00,,---,0.00,VWS V14.00,2013-09-17 04:02:00,
2013-09-17 00:07:00,69.5,66.4,30.13,NNE,17,7.0,10.0,90,0.00,,---,0.00,VWS V14.00,2013-09-17 04:07:00,
2013-09-17 00:12:00,69.4,66.3,30.13,NNE,22,8.0,10.0,90,0.00,,---,0.00,VWS V14.00,2013-09-17 04:12:00,
2013-09-17 00:17:00,69.1,66.1,30.13,North,10,6.0,10.0,90,0.00,,---,0.00,VWS V14.00,2013-09-17 04:17:00,
2013-09-17 00:22:00,69.0,66.3,30.13,North,10,6.0,10.0,91,0.00,,---,0.00,VWS V14.00,2013-09-17 04:22:00,
2013-09-17 00:27:00,68.8,66.1,30.13,North,6,8.0,10.0,91,0.00,,---,0.00,VWS V14.00,2013-09-17 04:27:00,
2013-09-17 00:32:00,68.7,66.0,30.13,North,350,6.0,9.0,91,0.00,,---,0.00,VWS V14.00,2013-09-17 04:32:00,
2013-09-17 00:37:00,68.6,66.2,30.12,North,6,5.0,9.0,92,0.00,,---,0.00,VWS V14.00,2013-09-17 04:37:00,
2013-09-17 00:42:00,68.6,65.9,30.13,NNE,16,6.0,10.0,91,0.00,,---,0.00,VWS V14.00,2013-09-17 04:42:00,
2013-09-17 00:47:00,68.6,65.9,30.13,NNE,20,7.0,10.0,91,0.00,,---,0.00,VWS V14.00,2013-09-17 04:47:00,
2013-09-17 00:52:00,68.6,65.9,30.13,NNE,19,7.0,10.0,91,0.00,,---,0.00,VWS V14.00,2013-09-17 04:52:00,
2013-09-17 00:57:00,68.6,65.9,30.13,North,350,10.0,12.0,91,0.00,,---,0.00,VWS V14.00,2013-09-17 04:57:00,
2013-09-17 01:02:00,68.5,65.8,30.13,NNW,347,9.0,12.0,91,0.00,,---,0.00,VWS V14.00,2013-09-17 05:02:00,
2013-09-17 01:07:00,68.5,65.8,30.13,North,6,5.0,12.0,91,0.00,,---,0.00,VWS V14.00,2013-09-17 05:07:00,
2013-09-17 01:12:00,68.4,65.4,30.14,North,11,4.0,12.0,90,0.00,,---,0.00,VWS V14.00,2013-09-17 05:12:00,
2013-09-17 01:17:00,68.5,65.5,30.14,NNE,28,7.0,12.0,90,0.00,,---,0.00,VWS V14.00,2013-09-17 05:17:00,
2013-09-17 01:22:00,68.4,65.0,30.14,NNE,14,4.0,12.0,89,0.00,,---,0.00,VWS V14.00,2013-09-17 05:22:00,
2013-09-17 01:27:00,68.4,65.0,30.14,North,0,5.0,12.0,89,0.00,,---,0.00,VWS V14.00,2013-09-17 05:27:00,
2013-09-17 01:32:00,68.3,64.6,30.13,NNE,14,7.0,9.0,88,0.00,,---,0.00,VWS V14.00,2013-09-17 05:32:00,
2013-09-17 01:37:00,68.2,64.5,30.13,NNE,17,10.0,10.0,88,0.00,,---,0.00,VWS V14.00,2013-09-17 05:37:00,
2013-09-17 01:42:00,68.2,64.5,30.14,NNE,20,4.0,10.0,88,0.00,,---,0.00,VWS V14.00,2013-09-17 05:42:00,
2013-09-17 01:47:00,68.1,64.1,30.14,North,8,5.0,10.0,87,0.00,,---,0.00,VWS V14.00,2013-09-17 05:47:00,
2013-09-17 01:52:00,68.0,64.0,30.14,North,10,5.0,10.0,87,0.00,,---,0.00,VWS V14.00,2013-09-17 05:52:00,
2013-09-17 01:57:00,67.8,63.8,30.13,North,9,5.0,10.0,87,0.00,,---,0.00,VWS V14.00,2013-09-17 05:57:00,
2013-09-17 02:02:00,67.7,63.7,30.13,NNE,25,4.0,10.0,87,0.00,,---,0.00,VWS V14.00,2013-09-17 06:02:00,
2013-09-17 02:07:00,67.6,63.9,30.13,NNE,26,4.0,10.0,88,0.00,,---,0.00,VWS V14.00,2013-09-17 06:07:00,
2013-09-17 02:12:00,67.5,63.8,30.14,North,8,4.0,10.0,88,0.00,,---,0.00,VWS V14.00,2013-09-17 06:12:00,
2013-09-17 02:17:00,67.4,63.7,30.14,NNE,24,6.0,10.0,88,0.00,,---,0.00,VWS V14.00,2013-09-17 06:17:00,
2013-09-17 02:22:00,67.2,63.5,30.15,North,0,4.0,10.0,88,0.00,,---,0.00,VWS V14.00,2013-09-17 06:22:00,
2013-09-17 02:27:00,67.2,63.8,30.15,North,5,3.0,10.0,89,0.00,,---,0.00,VWS V14.00,2013-09-17 06:27:00,
2013-09-17 02:32:00,67.1,63.8,30.15,NNE,15,2.0,7.0,89,0.00,,---,0.00,VWS V14.00,2013-09-17 06:32:00,
2013-09-17 02:37:00,66.9,63.6,30.15,NNE,14,5.0,8.0,89,0.00,,---,0.00,VWS V14.00,2013-09-17 06:37:00,
2013-09-17 02:42:00,66.8,63.8,30.15,NNE,14,5.0,8.0,90,0.00,,---,0.00,VWS V14.00,2013-09-17 06:42:00,
2013-09-17 02:47:00,66.7,63.7,30.15,North,356,4.0,8.0,90,0.00,,---,0.00,VWS V14.00,2013-09-17 06:47:00,
2013-09-17 02:52:00,66.6,63.6,30.15,North,9,6.0,8.0,90,0.00,,---,0.00,VWS V14.00,2013-09-17 06:52:00,
2013-09-17 02:57:00,66.5,63.2,30.15,North,8,7.0,9.0,89,0.00,,---,0.00,VWS V14.00,2013-09-17 06:57:00,
2013-09-17 03:02:00,66.5,63.2,30.15,NNE,15,8.0,8.0,89,0.00,,---,0.00,VWS V14.00,2013-09-17 07:02:00,
2013-09-17 03:07:00,66.5,63.2,30.16,North,8,5.0,10.0,89,0.00,,---,0.00,VWS V14.00,2013-09-17 07:07:00,
2013-09-17 03:12:00,66.3,63.0,30.16,NNE,17,3.0,10.0,89,0.00,,---,0.00,VWS V14.00,2013-09-17 07:12:00,
2013-09-17 03:16:00,66.2,62.9,30.16,North,356,3.0,10.0,89,0.00,,---,0.00,VWS V14.00,2013-09-17 07:16:00,
2013-09-17 03:21:00,66.1,63.1,30.16,North,352,5.0,10.0,90,0.00,,---,0.00,VWS V14.00,2013-09-17 07:21:00,
2013-09-17 03:26:00,66.0,63.0,30.15,North,3,7.0,10.0,90,0.00,,---,0.00,VWS V14.00,2013-09-17 07:26:00,
2013-09-17 03:31:00,65.9,62.9,30.15,North,7,4.0,9.0,90,0.00,,---,0.00,VWS V14.00,2013-09-17 07:31:00,
2013-09-17 03:36:00,65.8,62.8,30.15,North,352,6.0,9.0,90,0.00,,---,0.00,VWS V14.00,2013-09-17 07:36:00,
2013-09-17 03:41:00,65.7,62.7,30.15,NNE,14,5.0,9.0,90,0.00,,---,0.00,VWS V14.00,2013-09-17 07:41:00,
2013-09-17 03:46:00,65.7,62.7,30.15,NNE,14,3.0,9.0,90,0.00,,---,0.00,VWS V14.00,2013-09-17 07:46:00,
2013-09-17 03:51:00,65.6,62.6,30.15,North,4,6.0,10.0,90,0.00,,---,0.00,VWS V14.00,2013-09-17 07:51:00,
2013-09-17 03:56:00,65.5,62.5,30.14,North,6,3.0,10.0,90,0.00,,---,0.00,VWS V14.00,2013-09-17 07:56:00,
2013-09-17 04:01:00,65.5,62.5,30.14,NNE,29,4.0,9.0,90,0.00,,---,0.00,VWS V14.00,2013-09-17 08:01:00,
2013-09-17 04:06:00,65.4,62.4,30.14,North,11,5.0,9.0,90,0.00,,---,0.00,VWS V14.00,2013-09-17 08:06:00,
2013-09-17 04:11:00,65.4,62.1,30.15,NNE,13,10.0,11.0,89,0.00,,---,0.00,VWS V14.00,2013-09-17 08:11:00,
2013-09-17 04:16:00,65.4,62.1,30.15,NNE,16,3.0,11.0,89,0.00,,---,0.00,VWS V14.00,2013-09-17 08:16:00,
2013-09-17 04:21:00,65.4,62.1,30.15,NNE,19,5.0,11.0,89,0.00,,---,0.00,VWS V14.00,2013-09-17 08:21:00,
2013-09-17 04:26:00,65.4,61.8,30.15,NE,44,9.0,11.0,88,0.00,,---,0.00,VWS V14.00,2013-09-17 08:26:00,
2013-09-17 04:31:00,65.4,61.8,30.15,NNE,19,5.0,8.0,88,0.00,,---,0.00,VWS V14.00,2013-09-17 08:31:00,
2013-09-17 04:36:00,65.3,61.7,30.15,NE,37,9.0,11.0,88,0.00,,---,0.00,VWS V14.00,2013-09-17 08:36:00,
2013-09-17 04:41:00,65.2,61.6,30.16,NNE,14,5.0,11.0,88,0.00,,---,0.00,VWS V14.00,2013-09-17 08:41:00,
2013-09-17 04:46:00,65.1,61.5,30.16,North,6,3.0,11.0,88,0.00,,---,0.00,VWS V14.00,2013-09-17 08:46:00,
2013-09-17 04:51:00,65.0,61.4,30.16,North,354,5.0,11.0,88,0.00,,---,0.00,VWS V14.00,2013-09-17 08:51:00,
2013-09-17 04:56:00,64.9,61.3,30.16,NNE,13,8.0,11.0,88,0.00,,---,0.00,VWS V14.00,2013-09-17 08:56:00,
2013-09-17 05:01:00,64.9,61.3,30.17,North,9,5.0,9.0,88,0.00,,---,0.00,VWS V14.00,2013-09-17 09:01:00,
2013-09-17 05:06:00,64.8,61.2,30.16,NNE,13,5.0,9.0,88,0.00,,---,0.00,VWS V14.00,2013-09-17 09:06:00,
2013-09-17 05:11:00,64.8,61.2,30.16,NNE,14,3.0,9.0,88,0.00,,---,0.00,VWS V14.00,2013-09-17 09:11:00,
2013-09-17 05:16:00,64.7,61.1,30.16,North,356,5.0,9.0,88,0.00,,---,0.00,VWS V14.00,2013-09-17 09:16:00,
2013-09-17 05:21:00,64.6,61.0,30.16,NNE,19,4.0,9.0,88,0.00,,---,0.00,VWS V14.00,2013-09-17 09:21:00,
2013-09-17 05:26:00,64.5,60.9,30.17,NE,40,4.0,9.0,88,0.00,,---,0.00,VWS V14.00,2013-09-17 09:26:00,
2013-09-17 05:31:00,64.5,60.9,30.16,North,7,4.0,7.0,88,0.00,,---,0.00,VWS V14.00,2013-09-17 09:31:00,
2013-09-17 05:36:00,64.4,60.8,30.17,North,2,4.0,8.0,88,0.00,,---,0.00,VWS V14.00,2013-09-17 09:36:00,
2013-09-17 05:41:00,64.4,60.8,30.17,NNE,15,4.0,8.0,88,0.00,,---,0.00,VWS V14.00,2013-09-17 09:41:00,
2013-09-17 05:46:00,64.3,60.7,30.17,North,4,5.0,9.0,88,0.00,,---,0.00,VWS V14.00,2013-09-17 09:46:00,
2013-09-17 05:51:00,64.1,60.5,30.17,NNE,19,5.0,9.0,88,0.00,,---,0.00,VWS V14.00,2013-09-17 09:51:00,
2013-09-17 05:56:00,64.0,60.7,30.18,North,4,4.0,9.0,89,0.00,,---,0.00,VWS V14.00,2013-09-17 09:56:00,
2013-09-17 06:01:00,63.8,60.5,30.18,NNE,12,4.0,5.0,89,0.00,,---,0.00,VWS V14.00,2013-09-17 10:01:00,
2013-09-17 06:06:00,63.6,60.3,30.18,NNE,21,5.0,7.0,89,0.00,,---,0.00,VWS V14.00,2013-09-17 10:06:00,
2013-09-17 06:11:00,63.4,60.1,30.18,North,6,3.0,8.0,89,0.00,,---,0.00,VWS V14.00,2013-09-17 10:11:00,
2013-09-17 06:16:00,63.2,60.2,30.18,North,3,5.0,8.0,90,0.00,,---,0.00,VWS V14.00,2013-09-17 10:16:00,
2013-09-17 06:21:00,63.1,60.1,30.18,NNE,12,5.0,8.0,90,0.00,,---,0.00,VWS V14.00,2013-09-17 10:21:00,
2013-09-17 06:26:00,63.0,60.0,30.18,North,6,3.0,8.0,90,0.00,,---,0.00,VWS V14.00,2013-09-17 10:26:00,
2013-09-17 06:31:00,63.0,60.0,30.18,North,3,6.0,9.0,90,0.00,,---,0.00,VWS V14.00,2013-09-17 10:31:00,
2013-09-17 06:36:00,63.1,60.1,30.18,NNE,30,10.0,10.0,90,0.00,,---,0.00,VWS V14.00,2013-09-17 10:36:00,
2013-09-17 06:41:00,63.1,60.1,30.18,NNE,21,6.0,10.0,90,0.00,,---,0.00,VWS V14.00,2013-09-17 10:41:00,
2013-09-17 06:46:00,63.0,60.0,30.18,North,10,9.0,10.0,90,0.00,,---,0.00,VWS V14.00,2013-09-17 10:46:00,
2013-09-17 06:51:00,63.0,60.0,30.18,NE,50,7.0,11.0,90,0.00,,---,0.00,VWS V14.00,2013-09-17 10:51:00,
2013-09-17 06:56:00,62.9,59.9,30.18,NNE,27,5.0,11.0,90,0.00,,---,0.00,VWS V14.00,2013-09-17 10:56:00,
2013-09-17 07:01:00,62.9,59.9,30.18,NE,39,4.0,11.0,90,0.00,,---,0.00,VWS V14.00,2013-09-17 11:01:00,
2013-09-17 07:06:00,63.0,60.0,30.18,NE,41,7.0,12.0,90,0.00,,---,0.00,VWS V14.00,2013-09-17 11:06:00,
2013-09-17 07:11:00,63.0,59.7,30.19,NNE,30,4.0,12.0,89,0.00,,---,0.00,VWS V14.00,2013-09-17 11:11:00,
2013-09-17 07:16:00,63.1,59.8,30.19,NNE,14,5.0,12.0,89,0.00,,---,0.00,VWS V14.00,2013-09-17 11:16:00,
2013-09-17 07:21:00,63.1,59.8,30.19,North,352,8.0,12.0,89,0.00,,---,0.00,VWS V14.00,2013-09-17 11:21:00,
2013-09-17 07:26:00,63.1,59.8,30.20,North,3,4.0,12.0,89,0.00,,---,0.00,VWS V14.00,2013-09-17 11:26:00,
2013-09-17 07:31:00,63.1,59.8,30.20,North,10,3.0,7.0,89,0.00,,---,0.00,VWS V14.00,2013-09-17 11:31:00,
2013-09-17 07:36:00,63.1,59.8,30.20,NNE,21,5.0,9.0,89,0.00,,---,0.00,VWS V14.00,2013-09-17 11:36:00,
2013-09-17 07:41:00,63.2,59.9,30.21,North,352,3.0,9.0,89,0.00,,---,0.00,VWS V14.00,2013-09-17 11:41:00,
2013-09-17 07:46:00,63.3,60.0,30.21,North,6,5.0,9.0,89,0.00,,---,0.00,VWS V14.00,2013-09-17 11:46:00,
2013-09-17 07:51:00,63.5,60.2,30.21,North,358,6.0,10.0,89,0.00,,---,0.00,VWS V14.00,2013-09-17 11:51:00,
2013-09-17 07:56:00,63.6,60.3,30.21,North,8,7.0,10.0,89,0.00,,---,0.00,VWS V14.00,2013-09-17 11:56:00,
2013-09-17 08:01:00,63.9,60.3,30.22,NNE,17,6.0,10.0,88,0.00,,---,0.00,VWS V14.00,2013-09-17 12:01:00,
2013-09-17 08:06:00,64.1,60.5,30.22,NNE,21,9.0,10.0,88,0.00,,---,0.00,VWS V14.00,2013-09-17 12:06:00,
2013-09-17 08:11:00,64.4,60.5,30.22,NNE,27,7.0,12.0,87,0.00,,---,0.00,VWS V14.00,2013-09-17 12:11:00,
2013-09-17 08:16:00,64.6,60.7,30.22,North,4,7.0,12.0,87,0.00,,---,0.00,VWS V14.00,2013-09-17 12:16:00,
2013-09-17 08:21:00,64.8,60.5,30.22,NNE,13,9.0,12.0,86,0.00,,---,0.00,VWS V14.00,2013-09-17 12:21:00,
2013-09-17 08:26:00,64.9,60.6,30.22,NNE,21,6.0,12.0,86,0.00,,---,0.00,VWS V14.00,2013-09-17 12:26:00,
2013-09-17 08:31:00,65.0,60.7,30.22,North,10,10.0,13.0,86,0.00,,---,0.00,VWS V14.00,2013-09-17 12:31:00,
2013-09-17 08:36:00,65.4,60.8,30.23,NNE,19,8.0,15.0,85,0.00,,---,0.00,VWS V14.00,2013-09-17 12:36:00,
2013-09-17 08:41:00,65.8,61.2,30.23,NNE,19,8.0,15.0,85,0.00,,---,0.00,VWS V14.00,2013-09-17 12:41:00,
2013-09-17 08:46:00,66.0,61.0,30.23,North,4,7.0,15.0,84,0.00,,---,0.00,VWS V14.00,2013-09-17 12:46:00,
2013-09-17 08:51:00,66.0,61.0,30.23,NNE,31,10.0,15.0,84,0.00,,---,0.00,VWS V14.00,2013-09-17 12:51:00,
2013-09-17 08:56:00,66.3,61.3,30.23,NE,35,8.0,15.0,84,0.00,,---,0.00,VWS V14.00,2013-09-17 12:56:00,
2013-09-17 09:01:00,66.5,61.2,30.23,NNE,12,7.0,13.0,83,0.00,,---,0.00,VWS V14.00,2013-09-17 13:01:00,
2013-09-17 09:06:00,66.3,61.0,30.23,NNE,16,8.0,16.0,83,0.00,,---,0.00,VWS V14.00,2013-09-17 13:06:00,
2013-09-17 09:11:00,66.3,61.3,30.24,North,1,6.0,16.0,84,0.00,,---,0.00,VWS V14.00,2013-09-17 13:11:00,
2013-09-17 09:16:00,66.5,61.2,30.24,North,0,8.0,16.0,83,0.00,,---,0.00,VWS V14.00,2013-09-17 13:16:00,
2013-09-17 09:21:00,66.9,61.6,30.24,NNE,27,9.0,16.0,83,0.00,,---,0.00,VWS V14.00,2013-09-17 13:21:00,
2013-09-17 09:26:00,67.1,61.4,30.25,NNE,19,7.0,16.0,82,0.00,,---,0.00,VWS V14.00,2013-09-17 13:26:00,
2013-09-17 09:31:00,67.0,61.3,30.25,North,8,14.0,18.0,82,0.00,,---,0.00,VWS V14.00,2013-09-17 13:31:00,
2013-09-17 09:36:00,66.9,61.2,30.25,NNE,17,12.0,18.0,82,0.00,,---,0.00,VWS V14.00,2013-09-17 13:36:00,
2013-09-17 09:41:00,67.0,61.3,30.25,NNE,27,5.0,18.0,82,0.00,,---,0.00,VWS V14.00,2013-09-17 13:41:00,
2013-09-17 09:46:00,67.5,62.2,30.25,North,6,5.0,18.0,83,0.00,,---,0.00,VWS V14.00,2013-09-17 13:46:00,
2013-09-17 09:51:00,68.4,62.7,30.25,NNE,19,9.0,18.0,82,0.00,,---,0.00,VWS V14.00,2013-09-17 13:51:00,
2013-09-17 09:56:00,69.0,62.6,30.25,North,354,5.0,18.0,80,0.00,,---,0.00,VWS V14.00,2013-09-17 13:56:00,
2013-09-17 10:01:00,69.7,62.9,30.25,NE,35,11.0,12.0,79,0.00,,---,0.00,VWS V14.00,2013-09-17 14:01:00,
2013-09-17 10:06:00,70.2,62.7,30.25,NNE,24,9.0,13.0,77,0.00,,---,0.00,VWS V14.00,2013-09-17 14:06:00,
2013-09-17 10:11:00,70.5,62.6,30.25,North,7,11.0,14.0,76,0.00,,---,0.00,VWS V14.00,2013-09-17 14:11:00,
2013-09-17 10:16:00,70.5,62.6,30.25,NNE,27,9.0,15.0,76,0.00,,---,0.00,VWS V14.00,2013-09-17 14:16:00,
2013-09-17 10:21:00,70.8,62.9,30.25,North,7,8.0,16.0,76,0.00,,---,0.00,VWS V14.00,2013-09-17 14:21:00,
2013-09-17 10:26:00,71.1,62.8,30.25,NNE,12,14.0,17.0,75,0.00,,---,0.00,VWS V14.00,2013-09-17 14:26:00,
2013-09-17 10:31:00,71.2,62.5,30.25,NE,41,12.0,15.0,74,0.00,,---,0.00,VWS V14.00,2013-09-17 14:31:00,
2013-09-17 10:36:00,71.5,62.4,30.25,NNE,15,9.0,20.0,73,0.00,,---,0.00,VWS V14.00,2013-09-17 14:36:00,
2013-09-17 10:41:00,71.6,62.5,30.25,North,3,9.0,20.0,73,0.00,,---,0.00,VWS V14.00,2013-09-17 14:41:00,
2013-09-17 10:46:00,71.6,62.1,30.25,NE,39,17.0,20.0,72,0.00,,---,0.00,VWS V14.00,2013-09-17 14:46:00,
2013-09-17 10:51:00,71.7,61.8,30.25,NNE,20,9.0,21.0,71,0.00,,---,0.00,VWS V14.00,2013-09-17 14:51:00,
2013-09-17 10:56:00,71.7,61.8,30.25,NE,35,8.0,21.0,71,0.00,,---,0.00,VWS V14.00,2013-09-17 14:56:00,
2013-09-17 11:01:00,72.1,62.6,30.25,NE,34,12.0,18.0,72,0.00,,---,0.00,VWS V14.00,2013-09-17 15:01:00,
2013-09-17 11:06:00,72.5,62.6,30.25,NNE,19,12.0,18.0,71,0.00,,---,0.00,VWS V14.00,2013-09-17 15:06:00,
2013-09-17 11:11:00,72.5,62.2,30.25,NE,40,13.0,22.0,70,0.00,,---,0.00,VWS V14.00,2013-09-17 15:11:00,
2013-09-17 11:16:00,72.7,62.4,30.25,NE,44,13.0,22.0,70,0.00,,---,0.00,VWS V14.00,2013-09-17 15:16:00,
2013-09-17 11:21:00,73.1,62.7,30.25,NE,50,6.0,22.0,70,0.00,,---,0.00,VWS V14.00,2013-09-17 15:21:00,
2013-09-17 11:26:00,73.3,62.9,30.25,NNE,19,6.0,22.0,70,0.00,,---,0.00,VWS V14.00,2013-09-17 15:26:00,
2013-09-17 11:31:00,74.0,63.6,30.25,North,8,6.0,11.0,70,0.00,,---,0.00,VWS V14.00,2013-09-17 15:31:00,
2013-09-17 11:36:00,74.0,62.8,30.25,NNW,343,10.0,19.0,68,0.00,,---,0.00,VWS V14.00,2013-09-17 15:36:00,
2013-09-17 11:41:00,74.3,62.6,30.25,NE,48,12.0,19.0,67,0.00,,---,0.00,VWS V14.00,2013-09-17 15:41:00,
2013-09-17 11:46:00,74.1,62.9,30.26,North,358,6.0,19.0,68,0.00,,---,0.00,VWS V14.00,2013-09-17 15:46:00,
2013-09-17 11:51:00,74.2,62.1,30.25,NE,38,13.0,19.0,66,0.00,,---,0.00,VWS V14.00,2013-09-17 15:51:00,
2013-09-17 11:56:00,74.0,61.9,30.25,North,358,14.0,19.0,66,0.00,,---,0.00,VWS V14.00,2013-09-17 15:56:00,
2013-09-17 12:01:00,74.0,62.4,30.25,NE,43,8.0,15.0,67,0.00,,---,0.00,VWS V14.00,2013-09-17 16:01:00,
2013-09-17 12:06:00,74.4,61.9,30.25,ENE,70,9.0,15.0,65,0.00,,---,0.00,VWS V14.00,2013-09-17 16:06:00,
2013-09-17 12:11:00,74.9,62.3,30.25,NE,39,5.0,15.0,65,0.00,,---,0.00,VWS V14.00,2013-09-17 16:11:00,
2013-09-17 12:16:00,74.9,62.8,30.25,ENE,76,10.0,19.0,66,0.00,,---,0.00,VWS V14.00,2013-09-17 16:16:00,
2013-09-17 12:21:00,74.7,61.7,30.25,NE,36,5.0,19.0,64,0.00,,---,0.00,VWS V14.00,2013-09-17 16:21:00,
2013-09-17 12:26:00,75.0,62.0,30.25,NE,37,12.0,19.0,64,0.00,,---,0.00,VWS V14.00,2013-09-17 16:26:00,
2013-09-17 12:31:00,75.5,61.1,30.25,NE,44,9.0,16.0,61,0.00,,---,0.00,VWS V14.00,2013-09-17 16:31:00,
2013-09-17 12:36:00,75.6,61.2,30.25,ENE,78,12.0,17.0,61,0.00,,---,0.00,VWS V14.00,2013-09-17 16:36:00,
2013-09-17 12:41:00,75.6,62.6,30.24,East,82,10.0,18.0,64,0.00,,---,0.00,VWS V14.00,2013-09-17 16:41:00,
2013-09-17 12:46:00,75.5,61.1,30.24,NNE,14,10.0,19.0,61,0.00,,---,0.00,VWS V14.00,2013-09-17 16:46:00,
2013-09-17 12:51:00,75.3,61.4,30.24,NNE,12,11.0,19.0,62,0.00,,---,0.00,VWS V14.00,2013-09-17 16:51:00,
2013-09-17 12:56:00,75.6,61.7,30.24,NNW,341,9.0,19.0,62,0.00,,---,0.00,VWS V14.00,2013-09-17 16:56:00,
2013-09-17 13:01:00,76.0,62.0,30.24,NNE,26,11.0,16.0,62,0.00,,---,0.00,VWS V14.00,2013-09-17 17:01:00,
2013-09-17 13:06:00,75.5,62.0,30.24,NE,37,8.0,17.0,63,0.00,,---,0.00,VWS V14.00,2013-09-17 17:06:00,
2013-09-17 13:11:00,75.7,61.3,30.23,North,3,10.0,17.0,61,0.00,,---,0.00,VWS V14.00,2013-09-17 17:11:00,
2013-09-17 13:16:00,75.8,60.5,30.23,NNE,17,8.0,17.0,59,0.00,,---,0.00,VWS V14.00,2013-09-17 17:16:00,
2013-09-17 13:21:00,75.9,61.5,30.23,North,2,12.0,17.0,61,0.00,,---,0.00,VWS V14.00,2013-09-17 17:21:00,
2013-09-17 13:26:00,76.0,61.6,30.23,North,4,11.0,17.0,61,0.00,,---,0.00,VWS V14.00,2013-09-17 17:26:00,
2013-09-17 13:31:00,75.6,61.7,30.23,NNE,12,11.0,13.0,62,0.00,,---,0.00,VWS V14.00,2013-09-17 17:31:00,
2013-09-17 13:36:00,75.6,61.2,30.23,ENE,57,8.0,14.0,61,0.00,,---,0.00,VWS V14.00,2013-09-17 17:36:00,
2013-09-17 13:41:00,76.4,61.0,30.22,ENE,73,4.0,14.0,59,0.00,,---,0.00,VWS V14.00,2013-09-17 17:41:00,
2013-09-17 13:46:00,76.8,61.4,30.23,NE,41,9.0,18.0,59,0.00,,---,0.00,VWS V14.00,2013-09-17 17:46:00,
2013-09-17 13:51:00,76.9,61.0,30.22,ENE,66,13.0,19.0,58,0.00,,---,0.00,VWS V14.00,2013-09-17 17:51:00,
2013-09-17 13:56:00,77.0,61.1,30.22,East,80,5.0,19.0,58,0.00,,---,0.00,VWS V14.00,2013-09-17 17:56:00,
2013-09-17 14:01:00,77.2,61.3,30.22,NNE,33,13.0,17.0,58,0.00,,---,0.00,VWS V14.00,2013-09-17 18:01:00,
2013-09-17 14:06:00,76.4,61.5,30.22,North,3,10.0,17.0,60,0.00,,---,0.00,VWS V14.00,2013-09-17 18:06:00,
2013-09-17 14:11:00,75.7,62.2,30.22,NE,35,3.0,18.0,63,0.00,,---,0.00,VWS V14.00,2013-09-17 18:11:00,
2013-09-17 14:16:00,75.5,62.0,30.22,NNE,23,4.0,18.0,63,0.00,,---,0.00,VWS V14.00,2013-09-17 18:16:00,
2013-09-17 14:21:00,76.2,61.3,30.21,NNE,23,5.0,18.0,60,0.00,,---,0.00,VWS V14.00,2013-09-17 18:21:00,
2013-09-17 14:26:00,76.7,61.3,30.21,NNE,24,16.0,18.0,59,0.00,,---,0.00,VWS V14.00,2013-09-17 18:26:00,
2013-09-17 14:31:00,76.4,61.5,30.21,North,3,9.0,14.0,60,0.00,,---,0.00,VWS V14.00,2013-09-17 18:31:00,
2013-09-17 14:36:00,76.7,62.2,30.21,NE,38,9.0,14.0,61,0.00,,---,0.00,VWS V14.00,2013-09-17 18:36:00,
2013-09-17 14:41:00,76.0,62.0,30.21,East,79,12.0,15.0,62,0.00,,---,0.00,VWS V14.00,2013-09-17 18:41:00,
2013-09-17 14:46:00,75.5,62.5,30.21,NE,37,4.0,15.0,64,0.00,,---,0.00,VWS V14.00,2013-09-17 18:46:00,
2013-09-17 14:51:00,75.0,62.0,30.21,NE,51,10.0,15.0,64,0.00,,---,0.00,VWS V14.00,2013-09-17 18:51:00,
2013-09-17 14:56:00,75.0,62.5,30.21,NE,53,9.0,15.0,65,0.00,,---,0.00,VWS V14.00,2013-09-17 18:56:00,
2013-09-17 15:01:00,75.7,61.3,30.21,NNE,31,12.0,12.0,61,0.00,,---,0.00,VWS V14.00,2013-09-17 19:01:00,
2013-09-17 15:06:00,76.2,61.3,30.20,NNE,17,11.0,20.0,60,0.00,,---,0.00,VWS V14.00,2013-09-17 19:06:00,
2013-09-17 15:11:00,76.2,61.3,30.21,NE,52,8.0,23.0,60,0.00,,---,0.00,VWS V14.00,2013-09-17 19:11:00,
2013-09-17 15:16:00,75.4,61.9,30.21,ENE,73,11.0,23.0,63,0.00,,---,0.00,VWS V14.00,2013-09-17 19:16:00,
2013-09-17 15:21:00,75.8,62.8,30.20,ENE,61,9.0,23.0,64,0.00,,---,0.00,VWS V14.00,2013-09-17 19:21:00,
2013-09-17 15:26:00,76.8,62.8,30.20,East,79,10.0,23.0,62,0.00,,---,0.00,VWS V14.00,2013-09-17 19:26:00,
2013-09-17 15:31:00,77.0,62.1,30.20,NE,44,11.0,22.0,60,0.00,,---,0.00,VWS V14.00,2013-09-17 19:31:00,
2013-09-17 15:36:00,75.7,61.3,30.20,NE,52,10.0,22.0,61,0.00,,---,0.00,VWS V14.00,2013-09-17 19:36:00,
2013-09-17 15:41:00,75.1,61.7,30.20,NNE,26,4.0,22.0,63,0.00,,---,0.00,VWS V14.00,2013-09-17 19:41:00,
2013-09-17 15:46:00,74.9,61.5,30.20,ENE,60,7.0,22.0,63,0.00,,---,0.00,VWS V14.00,2013-09-17 19:46:00,
2013-09-17 15:51:00,74.7,61.7,30.20,NE,50,5.0,22.0,64,0.00,,---,0.00,VWS V14.00,2013-09-17 19:51:00,
2013-09-17 15:56:00,75.4,62.8,30.19,East,83,1.0,22.0,65,0.00,,---,0.00,VWS V14.00,2013-09-17 19:56:00,
2013-09-17 16:01:00,76.5,63.4,30.19,ENE,74,7.0,11.0,64,0.00,,---,0.00,VWS V14.00,2013-09-17 20:01:00,
2013-09-17 16:06:00,76.4,62.9,30.20,ENE,75,5.0,14.0,63,0.00,,---,0.00,VWS V14.00,2013-09-17 20:06:00,
2013-09-17 16:11:00,76.1,62.6,30.20,NE,56,9.0,14.0,63,0.00,,---,0.00,VWS V14.00,2013-09-17 20:11:00,
2013-09-17 16:16:00,76.6,63.5,30.19,ENE,71,6.0,14.0,64,0.00,,---,0.00,VWS V14.00,2013-09-17 20:16:00,
2013-09-17 16:21:00,76.8,62.8,30.20,ENE,62,10.0,16.0,62,0.00,,---,0.00,VWS V14.00,2013-09-17 20:21:00,
2013-09-17 16:26:00,76.0,62.5,30.20,NE,55,9.0,16.0,63,0.00,,---,0.00,VWS V14.00,2013-09-17 20:26:00,
2013-09-17 16:31:00,75.2,62.2,30.20,ENE,74,9.0,12.0,64,0.00,,---,0.00,VWS V14.00,2013-09-17 20:31:00,
2013-09-17 16:36:00,74.9,62.8,30.20,NE,44,7.0,14.0,66,0.00,,---,0.00,VWS V14.00,2013-09-17 20:36:00,
2013-09-17 16:41:00,75.4,62.4,30.20,NE,50,6.0,14.0,64,0.00,,---,0.00,VWS V14.00,2013-09-17 20:41:00,
2013-09-17 16:46:00,76.0,62.5,30.19,NE,52,9.0,14.0,63,0.00,,---,0.00,VWS V14.00,2013-09-17 20:46:00,
2013-09-17 16:51:00,76.3,62.3,30.19,ENE,58,8.0,16.0,62,0.00,,---,0.00,VWS V14.00,2013-09-17 20:51:00,
2013-09-17 16:55:00,76.1,61.7,30.19,NNE,24,9.0,19.0,61,0.00,,---,0.00,VWS V14.00,2013-09-17 20:55:00,
2013-09-17 17:00:00,75.3,61.8,30.20,ENE,76,5.0,15.0,63,0.00,,---,0.00,VWS V14.00,2013-09-17 21:00:00,
2013-09-17 17:05:00,74.7,62.2,30.20,NE,41,8.0,15.0,65,0.00,,---,0.00,VWS V14.00,2013-09-17 21:05:00,
2013-09-17 17:10:00,74.8,62.7,30.20,NE,53,10.0,16.0,66,0.00,,---,0.00,VWS V14.00,2013-09-17 21:10:00,
2013-09-17 17:15:00,75.0,61.6,30.20,ENE,59,14.0,17.0,63,0.00,,---,0.00,VWS V14.00,2013-09-17 21:15:00,
2013-09-17 17:20:00,74.8,62.3,30.20,NE,41,13.0,17.0,65,0.00,,---,0.00,VWS V14.00,2013-09-17 21:20:00,
2013-09-17 17:25:00,74.0,61.5,30.20,ENE,57,6.0,18.0,65,0.00,,---,0.00,VWS V14.00,2013-09-17 21:25:00,
2013-09-17 17:30:00,73.7,62.1,30.20,NNE,16,8.0,11.0,67,0.00,,---,0.00,VWS V14.00,2013-09-17 21:30:00,
2013-09-17 17:35:00,73.9,62.3,30.19,NE,35,8.0,14.0,67,0.00,,---,0.00,VWS V14.00,2013-09-17 21:35:00,
2013-09-17 17:40:00,74.2,62.5,30.19,North,3,5.0,14.0,67,0.00,,---,0.00,VWS V14.00,2013-09-17 21:40:00,
2013-09-17 17:45:00,74.4,62.7,30.19,NE,35,10.0,14.0,67,0.00,,---,0.00,VWS V14.00,2013-09-17 21:45:00,
2013-09-17 17:50:00,74.4,62.7,30.19,NE,35,9.0,14.0,67,0.00,,---,0.00,VWS V14.00,2013-09-17 21:50:00,
2013-09-17 17:55:00,74.3,62.6,30.19,NNE,29,12.0,14.0,67,0.00,,---,0.00,VWS V14.00,2013-09-17 21:55:00,
2013-09-17 18:00:00,74.2,62.5,30.19,ENE,70,8.0,11.0,67,0.00,,---,0.00,VWS V14.00,2013-09-17 22:00:00,
2013-09-17 18:05:00,74.1,62.9,30.19,NE,43,5.0,15.0,68,0.00,,---,0.00,VWS V14.00,2013-09-17 22:05:00,
2013-09-17 18:10:00,73.8,62.2,30.19,NE,39,11.0,18.0,67,0.00,,---,0.00,VWS V14.00,2013-09-17 22:10:00,
2013-09-17 18:16:00,73.1,61.9,30.19,ENE,71,16.0,18.0,68,0.00,,---,0.00,VWS V14.00,2013-09-17 22:16:00,
2013-09-17 18:21:00,72.6,61.9,30.19,NNE,27,12.0,18.0,69,0.00,,---,0.00,VWS V14.00,2013-09-17 22:21:00,
2013-09-17 18:26:00,72.1,61.8,30.19,NE,44,5.0,18.0,70,0.00,,---,0.00,VWS V14.00,2013-09-17 22:26:00,
2013-09-17 18:30:00,71.7,61.8,30.20,NE,50,10.0,13.0,71,0.00,,---,0.00,VWS V14.00,2013-09-17 22:30:00,
2013-09-17 18:35:00,71.4,61.5,30.20,East,90,7.0,13.0,71,0.00,,---,0.00,VWS V14.00,2013-09-17 22:35:00,
2013-09-17 18:40:00,71.0,61.5,30.20,NE,35,5.0,13.0,72,0.00,,---,0.00,VWS V14.00,2013-09-17 22:40:00,
2013-09-17 18:45:00,70.6,61.5,30.20,ENE,58,5.0,13.0,73,0.00,,---,0.00,VWS V14.00,2013-09-17 22:45:00,
2013-09-17 18:50:00,70.3,61.6,30.20,NE,41,2.0,13.0,74,0.00,,---,0.00,VWS V14.00,2013-09-17 22:50:00,
2013-09-17 18:55:00,70.0,61.7,30.20,ENE,62,3.0,13.0,75,0.00,,---,0.00,VWS V14.00,2013-09-17 22:55:00,
2013-09-17 19:00:00,69.7,61.4,30.20,NNE,21,3.0,5.0,75,0.00,,---,0.00,VWS V14.00,2013-09-17 23:00:00,
2013-09-17 19:05:00,69.5,61.6,30.20,NNE,25,4.0,5.0,76,0.00,,---,0.00,VWS V14.00,2013-09-17 23:05:00,
2013-09-17 19:10:00,69.3,61.4,30.20,NNE,25,5.0,7.0,76,0.00,,---,0.00,VWS V14.00,2013-09-17 23:10:00,
2013-09-17 19:15:00,69.2,61.0,30.20,ENE,66,5.0,13.0,75,0.00,,---,0.00,VWS V14.00,2013-09-17 23:15:00,
2013-09-17 19:20:00,68.9,61.0,30.20,ENE,61,3.0,13.0,76,0.00,,---,0.00,VWS V14.00,2013-09-17 23:20:00,
2013-09-17 19:26:00,68.6,60.7,30.20,NE,39,3.0,13.0,76,0.00,,---,0.00,VWS V14.00,2013-09-17 23:26:00,
2013-09-17 19:31:00,68.4,60.9,30.20,NNE,25,3.0,5.0,77,0.00,,---,0.00,VWS V14.00,2013-09-17 23:31:00,
2013-09-17 19:36:00,68.2,60.7,30.20,NNE,23,3.0,6.0,77,0.00,,---,0.00,VWS V14.00,2013-09-17 23:36:00,
2013-09-17 19:41:00,68.0,60.5,30.20,NNE,23,4.0,8.0,77,0.00,,---,0.00,VWS V14.00,2013-09-17 23:41:00,
2013-09-17 19:46:00,67.8,60.3,30.21,NE,38,2.0,8.0,77,0.00,,---,0.00,VWS V14.00,2013-09-17 23:46:00,
2013-09-17 19:51:00,67.7,60.2,30.21,NNE,24,4.0,8.0,77,0.00,,---,0.00,VWS V14.00,2013-09-17 23:51:00,
2013-09-17 19:56:00,67.5,60.0,30.21,NNE,29,4.0,8.0,77,0.00,,---,0.00,VWS V14.00,2013-09-17 23:56:00,
2013-09-17 20:01:00,67.3,59.8,30.21,NNE,24,7.0,8.0,77,0.00,,---,0.00,VWS V14.00,2013-09-18 00:01:00,
2013-09-17 20:06:00,67.2,59.4,30.21,North,8,5.0,9.0,76,0.00,,---,0.00,VWS V14.00,2013-09-18 00:06:00,
2013-09-17 20:11:00,67.2,59.4,30.21,NNE,23,6.0,10.0,76,0.00,,---,0.00,VWS V14.00,2013-09-18 00:11:00,
2013-09-17 20:16:00,67.1,58.9,30.21,North,2,7.0,12.0,75,0.00,,---,0.00,VWS V14.00,2013-09-18 00:16:00,
2013-09-17 20:21:00,67.1,58.9,30.22,NNE,27,8.0,12.0,75,0.00,,---,0.00,VWS V14.00,2013-09-18 00:21:00,
2013-09-17 20:26:00,66.9,59.1,30.22,ENE,62,5.0,12.0,76,0.00,,---,0.00,VWS V14.00,2013-09-18 00:26:00,
2013-09-17 20:31:00,66.7,58.9,30.22,NNE,19,5.0,7.0,76,0.00,,---,0.00,VWS V14.00,2013-09-18 00:31:00,
2013-09-17 20:36:00,66.5,58.7,30.22,NNE,33,5.0,10.0,76,0.00,,---,0.00,VWS V14.00,2013-09-18 00:36:00,
2013-09-17 20:40:00,66.3,58.5,30.22,NE,37,5.0,12.0,76,0.00,,---,0.00,VWS V14.00,2013-09-18 00:40:00,
2013-09-17 20:45:00,66.2,58.8,30.22,North,6,5.0,12.0,77,0.00,,---,0.00,VWS V14.00,2013-09-18 00:45:00,
2013-09-17 20:50:00,66.1,58.7,30.22,NE,38,4.0,12.0,77,0.00,,---,0.00,VWS V14.00,2013-09-18 00:50:00,
2013-09-17 20:55:00,65.9,58.5,30.22,NE,35,7.0,12.0,77,0.00,,---,0.00,VWS V14.00,2013-09-18 00:55:00,
2013-09-17 21:00:00,65.7,58.7,30.23,NNE,25,6.0,9.0,78,0.00,,---,0.00,VWS V14.00,2013-09-18 01:00:00,
2013-09-17 21:05:00,65.6,58.2,30.23,NE,48,5.0,11.0,77,0.00,,---,0.00,VWS V14.00,2013-09-18 01:05:00,
2013-09-17 21:10:00,65.5,58.1,30.23,NNE,14,7.0,11.0,77,0.00,,---,0.00,VWS V14.00,2013-09-18 01:10:00,
2013-09-17 21:15:00,65.3,57.9,30.23,NNE,31,8.0,11.0,77,0.00,,---,0.00,VWS V14.00,2013-09-18 01:15:00,
2013-09-17 21:20:00,65.2,58.2,30.23,NE,49,6.0,11.0,78,0.00,,---,0.00,VWS V14.00,2013-09-18 01:20:00,
2013-09-17 21:25:00,65.1,58.1,30.24,NE,38,2.0,11.0,78,0.00,,---,0.00,VWS V14.00,2013-09-18 01:25:00,
2013-09-17 21:30:00,65.0,58.0,30.24,NE,37,3.0,9.0,78,0.00,,---,0.00,VWS V14.00,2013-09-18 01:30:00,
2013-09-17 21:35:00,64.8,57.8,30.24,ENE,68,5.0,9.0,78,0.00,,---,0.00,VWS V14.00,2013-09-18 01:35:00,
2013-09-17 21:40:00,64.5,57.5,30.24,NE,49,5.0,9.0,78,0.00,,---,0.00,VWS V14.00,2013-09-18 01:40:00,
2013-09-17 21:45:00,64.4,57.8,30.24,NNE,23,6.0,9.0,79,0.00,,---,0.00,VWS V14.00,2013-09-18 01:45:00,
2013-09-17 21:50:00,64.2,57.6,30.24,NNE,28,5.0,9.0,79,0.00,,---,0.00,VWS V14.00,2013-09-18 01:50:00,
2013-09-17 21:55:00,64.0,57.4,30.24,NE,35,4.0,9.0,79,0.00,,---,0.00,VWS V14.00,2013-09-18 01:55:00,
2013-09-17 22:01:00,63.8,57.2,30.25,NE,54,3.0,8.0,79,0.00,,---,0.00,VWS V14.00,2013-09-18 02:01:00,
2013-09-17 22:06:00,63.7,57.1,30.25,NE,39,4.0,9.0,79,0.00,,---,0.00,VWS V14.00,2013-09-18 02:06:00,
2013-09-17 22:11:00,63.5,56.9,30.25,NNE,30,7.0,9.0,79,0.00,,---,0.00,VWS V14.00,2013-09-18 02:11:00,
2013-09-17 22:16:00,63.4,56.8,30.25,NNE,22,7.0,9.0,79,0.00,,---,0.00,VWS V14.00,2013-09-18 02:16:00,
2013-09-17 22:21:00,63.3,56.3,30.25,NNE,29,4.0,9.0,78,0.00,,---,0.00,VWS V14.00,2013-09-18 02:21:00,
2013-09-17 22:26:00,63.1,56.1,30.25,NNE,29,7.0,9.0,78,0.00,,---,0.00,VWS V14.00,2013-09-18 02:26:00,
2013-09-17 22:30:00,63.0,56.0,30.25,NE,43,7.0,9.0,78,0.00,,---,0.00,VWS V14.00,2013-09-18 02:30:00,
2013-09-17 22:35:00,62.9,55.9,30.24,NNE,19,6.0,9.0,78,0.00,,---,0.00,VWS V14.00,2013-09-18 02:35:00,
2013-09-17 22:40:00,62.7,55.8,30.24,NNE,29,3.0,9.0,78,0.00,,---,0.00,VWS V14.00,2013-09-18 02:40:00,
2013-09-17 22:45:00,62.5,55.9,30.25,NNE,32,3.0,9.0,79,0.00,,---,0.00,VWS V14.00,2013-09-18 02:45:00,
2013-09-17 22:50:00,62.4,55.5,30.24,NNE,33,4.0,9.0,78,0.00,,---,0.00,VWS V14.00,2013-09-18 02:50:00,
2013-09-17 22:55:00,62.4,55.5,30.25,NNE,29,3.0,9.0,78,0.00,,---,0.00,VWS V14.00,2013-09-18 02:55:00,
2013-09-17 23:00:00,62.2,55.3,30.25,NNE,33,4.0,5.0,78,0.00,,---,0.00,VWS V14.00,2013-09-18 03:00:00,
2013-09-17 23:05:00,62.0,55.4,30.25,NE,35,5.0,6.0,79,0.00,,---,0.00,VWS V14.00,2013-09-18 03:05:00,
2013-09-17 23:10:00,61.9,55.3,30.25,NNE,15,4.0,7.0,79,0.00,,---,0.00,VWS V14.00,2013-09-18 03:10:00,
2013-09-17 23:15:00,61.6,55.4,30.25,NNE,14,4.0,7.0,80,0.00,,---,0.00,VWS V14.00,2013-09-18 03:15:00,
2013-09-17 23:20:00,61.3,55.1,30.25,NNE,16,3.0,7.0,80,0.00,,---,0.00,VWS V14.00,2013-09-18 03:20:00,
2013-09-17 23:25:00,61.1,55.2,30.25,NNE,18,2.0,7.0,81,0.00,,---,0.00,VWS V14.00,2013-09-18 03:25:00,
2013-09-17 23:30:00,60.9,55.0,30.25,NNE,16,4.0,7.0,81,0.00,,---,0.00,VWS V14.00,2013-09-18 03:30:00,
2013-09-17 23:35:00,60.7,54.8,30.25,NNE,16,5.0,7.0,81,0.00,,---,0.00,VWS V14.00,2013-09-18 03:35:00,
2013-09-17 23:40:00,60.6,54.8,30.25,NNE,12,4.0,9.0,81,0.00,,---,0.00,VWS V14.00,2013-09-18 03:40:00,
2013-09-17 23:45:00,60.5,55.0,30.25,NNE,21,4.0,9.0,82,0.00,,---,0.00,VWS V14.00,2013-09-18 03:45:00,
2013-09-17 23:50:00,60.4,54.9,30.25,NNE,23,5.0,9.0,82,0.00,,---,0.00,VWS V14.00,2013-09-18 03:50:00,
2013-09-17 23:55:00,60.4,54.9,30.25,NNE,20,5.0,9.0,82,0.00,,---,0.00,VWS V14.00,2013-09-18 03:55:00,